Kingman, AZ

2:55 AM MST on March 30, 2017 (GMT -0700)
Kingman

Weather History for KIGM - April, 2013

Change the Weather History Date:

Monday, April 22, 2013

  Actual Average Record
Temperature  
Mean Temperature 69 °F 61 °F  
Max Temperature 85 °F 76 °F 93 °F (2012)
Min Temperature 53 °F 46 °F 27 °F (1921)
Degree Days  
Heating Degree Days 0 6  
Month to date heating degree days 141 179  
Since 1 July heating degree days 2866 3010  
Cooling Degree Days 4 1  
Month to date cooling degree days 6 15  
Year to date cooling degree days 12 18  
Growing Degree Days 18 (Base 50)    
Moisture  
Dew Point 18 °F    
Average Humidity 16    
Maximum Humidity 24    
Minimum Humidity 8    
Precipitation  
Precipitation 0.00 in 0.01 in 0.81 in (1905)
Month to date precipitation 0.05 0.34  
Year to date precipitation 1.18 3.26  
Sea Level Pressure  
Sea Level Pressure 29.73 in    
Wind  
Wind Speed 11 mph (SSW)    
Max Wind Speed 22 mph    
Max Gust Speed 26 mph    
Visibility 10 miles    
Events      
T = Trace of Precipitation, MM = Missing Value Source: NWS Daily Summary

Daily Weather History Graph

Daily Weather History Graph

Search for Another Location

Airport or City:

Trip Planner

Search our weather history database for the weather conditions in past years. The results will help you decide how hot, cold, wet, or windy it might be!

Date:

Astronomy

Apr. 22, 2013 Rise Set
Actual Time 5:54 AM MST 7:14 PM MST
Civil Twilight 5:27 AM MST 7:41 PM MST
Nautical Twilight 4:56 AM MST 8:13 PM MST
Astronomical Twilight 4:22 AM MST 8:46 PM MST
Moon 4:13 PM MST (4/22) 3:43 AM MST (4/22)
Length of Visible Light 14h 13m
Length of Day
13h 20m
Waxing Gibbous, 88% of the Moon is Illuminated
Apr 22
Waxing Gibbous
Apr 25
Full
May 2
Last Quarter
May 9
New
May 17
First Quarter

Hourly Weather History & Observations

Time (MST) Temp. Dew Point Humidity Pressure Visibility Wind Dir Wind Speed Gust Speed Precip Events Conditions
12:51 AM 60.1 °F 15.1 °F 17% 29.81 in 10.0 mi South 6.9 mph - N/A   Unknown
1:51 AM 59.0 °F 17.1 °F 20% 29.80 in 10.0 mi SSW 6.9 mph - N/A   Clear
2:51 AM 62.1 °F 19.9 °F 20% 29.80 in 10.0 mi South 4.6 mph - N/A   Clear
3:51 AM 55.9 °F 19.0 °F 24% 29.79 in 10.0 mi ESE 4.6 mph - N/A   Clear
4:51 AM 57.9 °F 18.0 °F 21% 29.78 in 10.0 mi SE 5.8 mph - N/A   Clear
5:51 AM 57.0 °F 19.0 °F 23% 29.79 in 10.0 mi SE 12.7 mph - N/A   Clear
6:51 AM 61.0 °F 21.0 °F 21% 29.81 in 10.0 mi ESE 10.4 mph - N/A   Clear
7:51 AM 69.1 °F 17.1 °F 14% 29.81 in 10.0 mi Variable 4.6 mph - N/A   Clear
8:51 AM 73.0 °F 21.0 °F 14% 29.83 in 10.0 mi Variable 3.5 mph - N/A   Clear
9:51 AM 77.0 °F 19.9 °F 12% 29.81 in 10.0 mi WSW 12.7 mph - N/A   Clear
10:51 AM 80.1 °F 19.0 °F 10% 29.81 in 10.0 mi WSW 12.7 mph - N/A   Clear
11:51 AM 82.0 °F 18.0 °F 9% 29.78 in 10.0 mi SW 17.3 mph 21.9 mph N/A   Clear
12:51 PM 84.0 °F 19.0 °F 9% 29.75 in 10.0 mi SW 16.1 mph 27.6 mph N/A   Clear
1:51 PM 84.0 °F 18.0 °F 9% 29.74 in 10.0 mi SSW 17.3 mph 24.2 mph N/A   Clear
2:51 PM 84.0 °F 18.0 °F 9% 29.70 in 10.0 mi South 19.6 mph 29.9 mph N/A   Clear
3:51 PM 84.0 °F 17.1 °F 8% 29.69 in 10.0 mi WSW 16.1 mph 29.9 mph N/A   Clear
4:51 PM 82.9 °F 16.0 °F 8% 29.67 in 10.0 mi WSW 19.6 mph 27.6 mph N/A   Clear
5:51 PM 82.0 °F 17.1 °F 9% 29.66 in 10.0 mi SSW 16.1 mph - N/A   Clear
6:51 PM 78.1 °F 16.0 °F 10% 29.64 in 10.0 mi South 15.0 mph - N/A   Unknown
7:51 PM 73.0 °F 17.1 °F 12% 29.64 in 10.0 mi South 9.2 mph - N/A   Clear
8:51 PM 73.0 °F 18.0 °F 12% 29.64 in 10.0 mi SSW 11.5 mph - N/A   Clear
9:51 PM 71.1 °F 19.0 °F 14% 29.64 in 10.0 mi SW 4.6 mph - N/A   Clear
10:51 PM 66.9 °F 18.0 °F 15% 29.64 in 10.0 mi ESE 8.1 mph - N/A   Clear
11:51 PM 69.1 °F 18.0 °F 14% 29.63 in 10.0 mi South 5.8 mph - N/A   Clear